Zurück zum Katalog

TIANPING-2C

AktivWissenschaftSSO
NORAD 52155·PAYLOAD·🇨🇳 China
Dieser Satellitenname wurde noch nicht durch offizielle Quellen bestätigt.

Gestartet Mar 30, 2022 von Jiuquan Satellite Launch Center

Loading…

Nächste Überflüge (nächste 24 Stunden)

TLE

AktuellSource: Space-Track

Epoche: Sep 14, 2026, 13:50 UTC

1 52155U 22032C   26257.57662884  .00000994  00000-0  80237-4 0  9991
2 52155  97.5805 300.8004 0018861 225.4681 134.5004 15.01968775243691

Verfolge TIANPING-2C in Echtzeit mit AllMySat

Download on the App Store